Date,TemperatureHighF,TemperatureAvgF,TemperatureLowF,DewpointHighF,DewpointAvgF,DewpointLowF,HumidityHigh,HumidityAvg,HumidityLow,PressureMaxIn,PressureMinIn,WindSpeedMaxMPH,WindSpeedAvgMPH,GustSpeedMaxMPH,PrecipitationSumIn
2013-6-1,68,56,46,46,42,34,86,61,30,30.00,29.69,17,8,26,0.02
2013-6-2,76,59,40,48,43,37,91,59,32,30.01,29.68,10,2,18,0.00
2013-6-3,88,66,51,61,50,44,90,58,25,29.71,29.39,13,3,19,0.62
2013-6-4,77,65,54,56,49,45,88,59,36,29.91,29.56,9,1,14,0.23
2013-6-5,67,56,48,50,46,42,92,71,41,29.97,29.89,10,1,14,0.41
2013-6-6,75,60,43,52,47,41,94,65,37,29.95,29.80,3,0,14,0.00
2013-6-7,83,66,49,54,49,43,90,58,26,29.88,29.51,8,1,14,0.03
2013-6-8,75,64,55,59,54,46,93,73,43,29.70,29.39,11,2,23,0.13
2013-6-9,84,68,52,53,49,44,88,56,25,29.77,29.63,5,1,14,0.00
2013-6-10,99,77,56,61,50,42,73,44,16,29.66,29.44,7,1,16,0.00
2013-6-11,93,80,65,65,62,57,87,57,31,29.48,29.29,9,2,15,0.00
2013-6-12,86,71,58,64,56,49,87,60,28,29.85,29.48,8,2,14,0.00
2013-6-13,81,66,52,62,53,48,88,64,41,29.93,29.61,12,2,16,0.01
2013-6-14,85,76,68,64,58,51,80,56,33,29.64,29.54,7,2,19,0.00
2013-6-15,82,72,62,62,58,53,83,63,43,29.73,29.59,7,1,14,0.00
2013-6-16,89,71,59,62,56,51,89,64,28,29.81,29.60,11,2,15,0.00
2013-6-17,82,69,53,57,54,50,95,63,35,29.89,29.78,7,1,14,0.00
2013-6-18,87,73,57,61,53,47,85,55,27,29.91,29.63,17,2,29,0.06
2013-6-19,84,74,59,63,59,55,89,61,45,29.71,29.46,14,5,26,0.00
2013-6-20,86,75,64,66,63,60,88,68,48,29.51,29.43,8,1,18,0.00
2013-6-21,90,76,65,66,58,47,80,56,35,29.58,29.40,21,2,25,0.28
2013-6-22,78,69,59,66,60,50,92,73,52,29.65,29.41,17,3,23,0.57
2013-6-23,84,72,59,64,56,44,84,60,30,29.69,29.43,9,1,21,0.01
2013-6-24,87,76,66,69,58,48,87,56,38,29.62,29.37,11,2,24,0.02
2013-6-25,91,78,65,68,58,44,94,58,20,29.56,29.36,13,3,20,0.00
2013-6-26,99,80,59,61,54,42,91,48,15,29.68,29.56,5,1,14,0.00
2013-6-27,89,79,67,64,56,50,72,48,28,29.84,29.61,8,2,15,0.00
2013-6-28,89,77,64,62,56,48,83,52,25,29.90,29.78,6,1,14,0.00
2013-6-29,84,73,59,58,53,46,82,51,33,29.86,29.76,7,2,14,0.00
2013-6-30,83,69,56,57,51,44,82,56,28,29.95,29.86,5,1,14,0.00